Previsão horária em Barra do Corda

Hoje, 22 Outubro, Quinta-feira

Tempo Temperatura Precipitação Vento Pressão Humidade
00:00 +29°C° 0 mm 3 m/s 747 mmHg 55%
01:00 +28°C° 0 mm 2 m/s 748 mmHg 65%
02:00 +27°C° 0 mm 1 m/s 748 mmHg 76%
03:00 +24°C° 0 mm 0 m/s 748 mmHg 87%
04:00 +25°C° 0 mm 1 m/s 748 mmHg 87%
05:00 +25°C° 0 mm 1 m/s 748 mmHg 88%
06:00 +25°C° 0 mm 1 m/s 749 mmHg 89%
07:00 +28°C° 0 mm 1 m/s 749 mmHg 76%
08:00 +31°C° 0 mm 2 m/s 750 mmHg 62%
09:00 +35°C° 0 mm 2 m/s 750 mmHg 49%
10:00 +37°C° 0 mm 2 m/s 749 mmHg 41%
11:00 +40°C° 0 mm 2 m/s 749 mmHg 34%
12:00 +42°C° 0 mm 2 m/s 748 mmHg 26%
13:00 +42°C° 0 mm 2 m/s 747 mmHg 26%
14:00 +41°C° 0 mm 2 m/s 746 mmHg 26%
15:00 +41°C° 0 mm 2 m/s 746 mmHg 26%
16:00 +39°C° 0 mm 2 m/s 746 mmHg 29%
17:00 +38°C° 0 mm 2 m/s 746 mmHg 32%
18:00 +37°C° 0 mm 2 m/s 746 mmHg 34%
19:00 +35°C° 0 mm 2 m/s 746 mmHg 39%
20:00 +34°C° 0 mm 2 m/s 747 mmHg 43%
21:00 +32°C° 0 mm 1 m/s 747 mmHg 48%
22:00 +31°C° 0 mm 2 m/s 747 mmHg 55%
23:00 +30°C° 0 mm 3 m/s 747 mmHg 62%

Amanhã, 23 Outubro, Sexta-feira

Tempo Temperatura Precipitação Vento Pressão Humidade
00:00 +29°C° 0 mm 4 m/s 748 mmHg 69%
01:00 +28°C° 0 mm 3 m/s 747 mmHg 75%
02:00 +27°C° 0 mm 2 m/s 747 mmHg 80%
03:00 +26°C° 0 mm 1 m/s 747 mmHg 86%
04:00 +26°C° 0.4 mm 1 m/s 747 mmHg 88%
05:00 +26°C° 0.4 mm 1 m/s 748 mmHg 89%
06:00 +26°C° 0.4 mm 1 m/s 748 mmHg 91%
07:00 +28°C° 0 mm 2 m/s 748 mmHg 80%
08:00 +31°C° 0 mm 3 m/s 749 mmHg 68%
09:00 +34°C° 0 mm 4 m/s 749 mmHg 57%
10:00 +36°C° 0.1 mm 3 m/s 749 mmHg 50%
11:00 +37°C° 0.1 mm 3 m/s 749 mmHg 43%
12:00 +39°C° 0.1 mm 3 m/s 748 mmHg 36%
13:00 +39°C° 0 mm 3 m/s 747 mmHg 34%
14:00 +40°C° 0 mm 3 m/s 746 mmHg 32%
15:00 +40°C° 0 mm 3 m/s 745 mmHg 30%
16:00 +38°C° 0 mm 3 m/s 746 mmHg 35%
17:00 +37°C° 0 mm 2 m/s 746 mmHg 39%
18:00 +35°C° 0 mm 2 m/s 746 mmHg 44%
19:00 +32°C° 0.1 mm 2 m/s 746 mmHg 51%
20:00 +31°C° 0.1 mm 2 m/s 747 mmHg 58%
21:00 +29°C° 0.1 mm 2 m/s 748 mmHg 66%
22:00 +29°C° 0 mm 2 m/s 748 mmHg 70%
23:00 +28°C° 0 mm 2 m/s 747 mmHg 75%

Depois de amanhã, 24 Outubro, Sábado

Tempo Temperatura Precipitação Vento Pressão Humidade
00:00 +27°C° 0 mm 1 m/s 747 mmHg 79%
01:00 +27°C° 0.1 mm 1 m/s 747 mmHg 80%
02:00 +27°C° 0.1 mm 1 m/s 747 mmHg 81%
03:00 +27°C° 0.1 mm 1 m/s 747 mmHg 81%
04:00 +27°C° 0 mm 1 m/s 747 mmHg 82%
05:00 +26°C° 0 mm 1 m/s 748 mmHg 83%
06:00 +26°C° 0 mm 1 m/s 748 mmHg 84%
07:00 +28°C° 0 mm 2 m/s 749 mmHg 76%
08:00 +29°C° 0 mm 2 m/s 749 mmHg 69%
09:00 +31°C° 0 mm 3 m/s 750 mmHg 61%
10:00 +34°C° 0.2 mm 3 m/s 749 mmHg 55%
11:00 +36°C° 0.2 mm 3 m/s 749 mmHg 48%
12:00 +38°C° 0.2 mm 3 m/s 748 mmHg 42%
13:00 +38°C° 0.1 mm 2 m/s 748 mmHg 41%
14:00 +38°C° 0.1 mm 2 m/s 747 mmHg 40%
15:00 +37°C° 0.1 mm 2 m/s 746 mmHg 39%
16:00 +35°C° 0 mm 1 m/s 746 mmHg 41%
17:00 +34°C° 0 mm 1 m/s 746 mmHg 43%
18:00 +33°C° 0 mm 1 m/s 746 mmHg 45%
19:00 +32°C° 0 mm 1 m/s 746 mmHg 49%
20:00 +29°C° 0 mm 0 m/s 746 mmHg 52%
21:00 +28°C° 0 mm 0 m/s 746 mmHg 55%
22:00 +29°C° 0 mm 1 m/s 746 mmHg 57%
23:00 +29°C° 0 mm 1 m/s 746 mmHg 58%

, 25 Outubro, Domingo

Tempo Temperatura Precipitação Vento Pressão Humidade
00:00 +29°C° 0 mm 2 m/s 746 mmHg 60%
01:00 +28°C° 0 mm 2 m/s 746 mmHg 66%
02:00 +27°C° 0 mm 2 m/s 746 mmHg 73%
03:00 +26°C° 0 mm 2 m/s 746 mmHg 80%
04:00 +26°C° 0 mm 1 m/s 746 mmHg 81%
05:00 +26°C° 0 mm 1 m/s 747 mmHg 82%
06:00 +26°C° 0 mm 1 m/s 747 mmHg 83%
07:00 +28°C° 0 mm 1 m/s 748 mmHg 72%
08:00 +31°C° 0 mm 2 m/s 748 mmHg 61%
09:00 +35°C° 0 mm 2 m/s 749 mmHg 49%
10:00 +36°C° 0 mm 2 m/s 748 mmHg 46%
11:00 +37°C° 0 mm 2 m/s 747 mmHg 42%
12:00 +38°C° 0 mm 2 m/s 747 mmHg 38%
13:00 +39°C° 0 mm 2 m/s 746 mmHg 37%
14:00 +39°C° 0 mm 1 m/s 745 mmHg 35%
15:00 +40°C° 0 mm 1 m/s 745 mmHg 33%
16:00 +37°C° 0 mm 1 m/s 745 mmHg 37%
17:00 +35°C° 0 mm 1 m/s 745 mmHg 41%
18:00 +32°C° 0 mm 0 m/s 745 mmHg 45%
19:00 +30°C° 0 mm 0 m/s 745 mmHg 48%
20:00 +29°C° 0 mm 0 m/s 745 mmHg 52%
21:00 +30°C° 0 mm 1 m/s 746 mmHg 55%
22:00 +30°C° 0 mm 1 m/s 746 mmHg 57%
23:00 +30°C° 0 mm 2 m/s 746 mmHg 58%

25 Outubro, Domingo

Tempo Temperatura Precipitação Vento Pressão Humidade
00:00 +29°C° 0 mm 2 m/s 746 mmHg 60%
01:00 +28°C° 0 mm 2 m/s 746 mmHg 66%
02:00 +27°C° 0 mm 2 m/s 746 mmHg 73%
03:00 +26°C° 0 mm 2 m/s 746 mmHg 80%
04:00 +26°C° 0 mm 1 m/s 746 mmHg 81%
05:00 +26°C° 0 mm 1 m/s 747 mmHg 82%
06:00 +26°C° 0 mm 1 m/s 747 mmHg 83%
07:00 +28°C° 0 mm 1 m/s 748 mmHg 72%
08:00 +31°C° 0 mm 2 m/s 748 mmHg 61%
09:00 +35°C° 0 mm 2 m/s 749 mmHg 49%
10:00 +36°C° 0 mm 2 m/s 748 mmHg 46%
11:00 +37°C° 0 mm 2 m/s 747 mmHg 42%
12:00 +38°C° 0 mm 2 m/s 747 mmHg 38%
13:00 +39°C° 0 mm 2 m/s 746 mmHg 37%
14:00 +39°C° 0 mm 1 m/s 745 mmHg 35%
15:00 +40°C° 0 mm 1 m/s 745 mmHg 33%
16:00 +37°C° 0 mm 1 m/s 745 mmHg 37%
17:00 +35°C° 0 mm 1 m/s 745 mmHg 41%
18:00 +32°C° 0 mm 0 m/s 745 mmHg 45%
19:00 +30°C° 0 mm 0 m/s 745 mmHg 48%
20:00 +29°C° 0 mm 0 m/s 745 mmHg 52%
21:00 +30°C° 0 mm 1 m/s 746 mmHg 55%
22:00 +30°C° 0 mm 1 m/s 746 mmHg 57%
23:00 +30°C° 0 mm 2 m/s 746 mmHg 58%

26 Outubro, Segunda-feira

Tempo Temperatura Precipitação Vento Pressão Humidade
00:00 +29°C° 0 mm 2 m/s 746 mmHg 60%
01:00 +28°C° 0 mm 2 m/s 746 mmHg 67%
02:00 +28°C° 0 mm 2 m/s 746 mmHg 74%
03:00 +27°C° 0 mm 2 m/s 746 mmHg 82%
04:00 +26°C° 0 mm 2 m/s 746 mmHg 83%
05:00 +26°C° 0 mm 1 m/s 746 mmHg 84%
06:00 +26°C° 0 mm 1 m/s 747 mmHg 85%
07:00 +29°C° 0 mm 2 m/s 747 mmHg 73%
08:00 +31°C° 0 mm 2 m/s 748 mmHg 62%
09:00 +35°C° 0 mm 3 m/s 748 mmHg 51%
10:00 +36°C° 0 mm 2 m/s 747 mmHg 47%
11:00 +37°C° 0 mm 2 m/s 747 mmHg 43%
12:00 +38°C° 0 mm 2 m/s 746 mmHg 38%
13:00 +38°C° 0 mm 2 m/s 746 mmHg 38%
14:00 +37°C° 0 mm 1 m/s 745 mmHg 38%
15:00 +37°C° 0 mm 1 m/s 745 mmHg 38%
16:00 +36°C° 0 mm 1 m/s 745 mmHg 42%
17:00 +34°C° 0 mm 1 m/s 745 mmHg 45%
18:00 +33°C° 0 mm 1 m/s 745 mmHg 49%
19:00 +32°C° 0 mm 1 m/s 745 mmHg 53%
20:00 +31°C° 0 mm 1 m/s 746 mmHg 58%
21:00 +29°C° 0 mm 1 m/s 746 mmHg 63%
22:00 +29°C° 0.1 mm 1 m/s 746 mmHg 67%
23:00 +28°C° 0.1 mm 1 m/s 746 mmHg 71%

27 Outubro, Terça-feira

Tempo Temperatura Precipitação Vento Pressão Humidade
00:00 +27°C° 0.1 mm 1 m/s 746 mmHg 75%
01:00 +26°C° 0.1 mm 1 m/s 746 mmHg 80%
02:00 +26°C° 0.1 mm 2 m/s 746 mmHg 85%
03:00 +25°C° 0.1 mm 2 m/s 746 mmHg 90%
04:00 +25°C° 0 mm 2 m/s 746 mmHg 91%
05:00 +25°C° 0 mm 1 m/s 747 mmHg 92%
06:00 +25°C° 0 mm 1 m/s 747 mmHg 93%
07:00 +28°C° 0 mm 2 m/s 747 mmHg 79%
08:00 +31°C° 0 mm 2 m/s 748 mmHg 65%
09:00 +35°C° 0 mm 2 m/s 748 mmHg 50%
10:00 +38°C° 0 mm 2 m/s 748 mmHg 43%
11:00 +41°C° 0 mm 1 m/s 747 mmHg 35%
12:00 +44°C° 0 mm 1 m/s 746 mmHg 27%
13:00 +42°C° 0 mm 1 m/s 746 mmHg 30%
14:00 +41°C° 0 mm 1 m/s 745 mmHg 32%
15:00 +39°C° 0 mm 1 m/s 744 mmHg 35%
16:00 +36°C° 0.3 mm 1 m/s 744 mmHg 43%
17:00 +33°C° 0.3 mm 1 m/s 744 mmHg 52%
18:00 +31°C° 0.3 mm 1 m/s 744 mmHg 60%
19:00 +30°C° 0.5 mm 1 m/s 744 mmHg 67%
20:00 +28°C° 0.5 mm 2 m/s 745 mmHg 75%
21:00 +27°C° 0.5 mm 2 m/s 745 mmHg 82%
22:00 +27°C° 0 mm 2 m/s 745 mmHg 84%
23:00 +26°C° 0 mm 2 m/s 746 mmHg 86%
Mostrar mais